Погода в Раквице

Чехия     48°51′26″N   16°48′53″E
темп.,
°C
ветер,
м/с
пор.,
м/с
влажн.,
%
обл.,
%
осадки,
мм/ч
давл.,
гПа
погр.,
м
28 июня, вт
вт2823:00+24юв4952100 0.0 1014184
02:00+19юз2385100 1.5 101746
05:00+19зсз41092100 0.6 1018309
08:00+22сз477999 0.6 1019558
11:00+26сз4456100 0.0 10191429
14:00+27с325269 0.1 10181417
17:00+29с114581 0.0 10161817
20:00+26ссв3562100 0.0 1016243
29 июня, ср
ср2923:00+22св41080100 0.0 1016243
02:00+20св1387100 0.7 101457
05:00+19всв229241 0.7 101426
08:00+23вюв587268 1.1 1014401
11:00+29юв564189 0.7 1013950
14:00+34юв57295 0.7 10112364
17:00+35юв782532 0.0 10093069
20:00+31вюв612355 0.0 1009495
30 июня, чт
чт3023:00+22з7138458 1.4 1011233
02:00+19ссз36910 1.4 1011114
05:00+18зсз22911 0.1 101120
08:00+22сз23753 0.3 1013315
11:00+29юв12480 0.0 10121023
14:00+33ююв46332 0.0 10102186
17:00+34ююз36294 0.0 10092650
20:00+21зсз376799 1.0 1010115
1 июля, пт
пт123:00+19ссв228277 1.7 101217
02:00+18з118914 2.3 101111
05:00+17зсз119330 1.1 101211
08:00+21ююз2379100 1.1 1013346
11:00+27з335361 0.0 1013918
14:00+31зюз344126 0.0 10121956
17:00+25з10106596 0.5 10141006
20:00+17зсз81392100 3.0 1018532
2 июля, сб
сб223:00+17сз6128892 0.5 1021743
02:00+14сз6128756 0.6 1022532
05:00+14сз41085100 0.0 1023467
08:00+17сз676774 0.0 1024735
11:00+22ссз45473 0.0 10231343
14:00+26ссв45370 0.0 10221987
17:00+24ссв66450 0.0 10221505
20:00+21св47560 0.0 1022345